Amsterdam, Netherlands

6:41 PM CET on November 17, 2017 (GMT +0100)
Schiphol

Weather History for EHAM - November, 2017

Change the Weather History Date:

Tuesday, November 14, 2017

  Actual Average Record
Temperature  
Mean Temperature 44 °F -  
Max Temperature 51 °F 45 °F 57 °F (2006)
Min Temperature 37 °F 37 °F 29 °F (2016)
Degree Days  
Heating Degree Days 21    
Moisture  
Dew Point 44 °F    
Average Humidity 91    
Maximum Humidity 100    
Minimum Humidity 76    
Precipitation  
Precipitation 0.08 in - - ()
Sea Level Pressure  
Sea Level Pressure 30.18 in    
Wind  
Wind Speed 9 mph ()    
Max Wind Speed 17 mph    
Max Gust Speed -    
Visibility 5.1 miles    
Events Rain    
Averages and records for this station are not official NWS values.
T = Trace of Precipitation, MM = Missing Value Source: Averaged Metar Reports

Daily Weather History Graph

Daily Weather History Graph

Search for Another Location

Airport or City:

Trip Planner

Search our weather history database for the weather conditions in past years. The results will help you decide how hot, cold, wet, or windy it might be!

Date:

Astronomy

Nov. 14, 2017 Rise Set
Actual Time 8:00 AM CET 4:49 PM CET
Civil Twilight 7:22 AM CET 5:27 PM CET
Nautical Twilight 6:41 AM CET 6:08 PM CET
Astronomical Twilight 6:01 AM CET 6:48 PM CET
Moon 3:05 AM CET (11/14) 3:42 PM CET (11/14)
Length of Visible Light 10h 04m
Length of Day
8h 49m
Waning Crescent, 15% of the Moon is Illuminated
Nov 14
Waning Crescent
Nov 18
New
Nov 26
First Quarter
Dec 3
Full
Dec 10
Last Quarter

Hourly Weather History & Observations

Time (CET) Temp. Windchill Dew Point Humidity Pressure Visibility Wind Dir Wind Speed Gust Speed Precip Events Conditions
12:00 AM 40 °F - 38 °F 88% 30.22 in 16 mi SSW 8.9 mph - - Rain Drizzle
12:25 AM 39.2 °F 35.0 °F 37.4 °F 93% 30.21 in 6.2 mi SSW 5.8 mph - N/A   Partly Cloudy
12:55 AM 41.0 °F 36.4 °F 39.2 °F 93% 30.21 in 6.2 mi SSW 6.9 mph - N/A Rain Light Rain Showers
1:00 AM 42 °F - 39 °F 86% 30.21 in 11 mi SW 6.7 mph - - Rain Light Drizzle
1:25 AM 44.6 °F 39.7 °F 39.2 °F 81% 30.21 in 6.2 mi WSW 9.2 mph - N/A Rain Light Rain Showers
1:55 AM 42.8 °F 40.1 °F 41.0 °F 93% 30.18 in 6.2 mi WNW 4.6 mph - N/A   Scattered Clouds
2:00 AM 43 °F - 40 °F 84% 30.21 in 28 mi WNW 2.2 mph - - Rain Drizzle
2:25 AM 42.8 °F 41.1 °F 39.2 °F 87% 30.18 in 6.2 mi South 3.5 mph - N/A Rain Light Rain Showers
2:55 AM 42.8 °F 38.6 °F 41.0 °F 93% 30.18 in 6.2 mi South 6.9 mph - N/A   Scattered Clouds
3:00 AM 42 °F - 40 °F 89% 30.20 in 22 mi South 6.7 mph - - Rain Drizzle
3:25 AM 41.0 °F 37.1 °F 39.2 °F 93% 30.18 in 6.2 mi SSW 5.8 mph - N/A   Scattered Clouds
3:55 AM 42.8 °F 37.5 °F 41.0 °F 93% 30.18 in 6.2 mi SW 9.2 mph - N/A   Scattered Clouds
4:25 AM 42.8 °F 38.0 °F 41.0 °F 93% 30.18 in 6.2 mi SW 8.1 mph - N/A   Partly Cloudy
4:55 AM 42.8 °F 37.5 °F 41.0 °F 93% 30.18 in 6.2 mi SSW 9.2 mph - N/A   Partly Cloudy
5:00 AM 42 °F - 40 °F 88% 30.17 in 22 mi SW 8.9 mph - -   Overcast
5:25 AM 42.8 °F 38.6 °F 41.0 °F 93% 30.15 in 6.2 mi SSW 6.9 mph - N/A   Partly Cloudy
5:55 AM 41.0 °F 36.4 °F 39.2 °F 93% 30.15 in 6.2 mi SSW 6.9 mph - N/A   Partly Cloudy
6:00 AM 42 °F - 40 °F 89% 30.19 in 22 mi SSW 6.7 mph - -   Overcast
6:25 AM 42.8 °F 38.0 °F 41.0 °F 93% 30.18 in 6.2 mi SSW 8.1 mph - N/A   Partly Cloudy
6:55 AM 44.6 °F 39.7 °F 39.2 °F 81% 30.15 in 6.2 mi SSW 9.2 mph - N/A   Partly Cloudy
7:00 AM 44 °F - 40 °F 79% 30.17 in 25 mi SSW 8.9 mph - -   Partly Cloudy
7:25 AM 44.6 °F 39.2 °F 37.4 °F 76% 30.15 in 6.2 mi SW 10.4 mph - N/A   Partly Cloudy
7:55 AM 42.8 °F 37.0 °F 37.4 °F 81% 30.15 in 6.2 mi SW 10.4 mph - N/A   Partly Cloudy
8:00 AM 41 °F - 37 °F 80% 30.17 in 25 mi SW 11.2 mph - -   Overcast
8:25 AM 39.2 °F 33.0 °F 37.4 °F 93% 30.15 in 6.2 mi SSW 9.2 mph - N/A   Partly Cloudy
8:55 AM 42.8 °F 37.5 °F 39.2 °F 87% 30.15 in 6.2 mi SSW 9.2 mph - N/A   Partly Cloudy
9:00 AM 44 °F - 39 °F 76% 30.18 in 22 mi SSW 8.9 mph - -   Overcast
9:25 AM 44.6 °F 38.1 °F 39.2 °F 81% 30.18 in 6.2 mi SSW 13.8 mph - N/A   Mostly Cloudy
9:55 AM 46.4 °F 39.8 °F 41.0 °F 81% 30.18 in 6.2 mi SSW 16.1 mph - N/A   Mostly Cloudy
10:00 AM 45 °F - 41 °F 80% 30.18 in 16 mi SSW 15.7 mph - -   Partly Cloudy
10:25 AM 46.4 °F 39.5 °F 41.0 °F 81% 30.18 in 6.2 mi SSW 17.3 mph - N/A   Mostly Cloudy
10:55 AM 46.4 °F 39.8 °F 41.0 °F 81% 30.18 in 6.2 mi SSW 16.1 mph - N/A   Mostly Cloudy
11:00 AM 46 °F - 42 °F 80% 30.18 in 14 mi SSW 15.7 mph - -   Overcast
11:25 AM 46.4 °F 39.8 °F 41.0 °F 81% 30.18 in 6.2 mi SSW 16.1 mph - N/A   Mostly Cloudy
11:55 AM 46.4 °F 40.1 °F 42.8 °F 87% 30.15 in 6.2 mi SSW 15.0 mph - N/A   Mostly Cloudy
12:00 PM 47 °F - 42 °F 78% 30.18 in 11 mi SSW 15.7 mph - -   Overcast
12:25 PM 46.4 °F 39.5 °F 42.8 °F 87% 30.15 in - SW 17.3 mph - N/A   Light Drizzle
12:55 PM 46.4 °F 40.1 °F 44.6 °F 93% 30.15 in 1.6 mi SSW 15.0 mph - N/A   Light Drizzle
1:00 PM 46 °F - 44 °F 92% 30.17 in 1 mi SSW 15.7 mph - - Rain Heavy Drizzle
1:25 PM 46.4 °F 40.1 °F 44.6 °F 93% 30.15 in 1.6 mi SSW 15.0 mph - N/A   Light Drizzle
1:55 PM 46.4 °F 40.4 °F 46.4 °F 100% 30.15 in 1.7 mi SSW 13.8 mph - N/A   Light Drizzle
2:00 PM 47 °F - 46 °F 94% 30.18 in 1 mi SSW 13.4 mph - - Rain Light Rain
2:25 PM 48.2 °F - 46.4 °F 93% 30.15 in 1.2 mi SW 10.4 mph - N/A   Light Drizzle
2:55 PM 50.0 °F - 48.2 °F 94% 30.15 in - WSW 10.4 mph - N/A   Light Drizzle
3:00 PM 50 °F - 49 °F 95% 30.17 in 2 mi SW 8.9 mph - - Rain Heavy Drizzle
3:25 PM 50.0 °F - 50.0 °F 100% 30.15 in 1.4 mi WSW 10.4 mph - N/A   Light Drizzle
3:55 PM 50.0 °F - 50.0 °F 100% 30.15 in - WSW 9.2 mph - N/A   Light Drizzle
4:00 PM 50 °F - 49 °F 97% 30.18 in 2 mi WSW 8.9 mph - - Rain Drizzle
4:25 PM 50.0 °F - 50.0 °F 100% 30.15 in 3.1 mi WSW 8.1 mph - N/A   Light Drizzle
4:55 PM 50.0 °F - 50.0 °F 100% 30.15 in 6.2 mi WSW 9.2 mph - N/A   Overcast
5:00 PM 51 °F - 49 °F 92% 30.18 in 7 mi WSW 8.9 mph - - Rain Rain
5:25 PM 50.0 °F - 50.0 °F 100% 30.18 in 5.6 mi WSW 8.1 mph - N/A   Light Drizzle
5:55 PM 51.8 °F - 50.0 °F 94% 30.18 in 5.6 mi WSW 8.1 mph - N/A   Light Drizzle
6:00 PM 51 °F - 49 °F 92% 30.19 in 6 mi West 6.7 mph - -   Mist
6:25 PM 50.0 °F - 50.0 °F 100% 30.18 in 6.2 mi WSW 5.8 mph - N/A   Light Drizzle
6:55 PM 50.0 °F - 50.0 °F 100% 30.18 in 6.2 mi SW 6.9 mph - N/A   Overcast
7:00 PM 51 °F - 49 °F 92% 30.20 in 4 mi SW 6.7 mph - -   Mist
7:25 PM 50.0 °F - 50.0 °F 100% 30.18 in 3.7 mi SSW 6.9 mph - N/A   Light Drizzle
7:55 PM 50.0 °F - 50.0 °F 100% 30.18 in 2.8 mi SSW 6.9 mph - N/A   Light Drizzle
8:00 PM 50 °F - 49 °F 96% 30.21 in 2 mi South 6.7 mph - - Rain Heavy Drizzle
8:25 PM 50.0 °F - 50.0 °F 100% 30.21 in 2.5 mi SSW 5.8 mph - N/A   Light Drizzle
8:55 PM 50.0 °F - 50.0 °F 100% 30.21 in 1.6 mi SSW 10.4 mph - N/A   Light Drizzle
9:00 PM 50 °F - 49 °F 95% 30.22 in 2 mi SSW 11.2 mph - - Rain Light Rain Showers
9:25 PM 50.0 °F - 48.2 °F 94% 30.21 in 2.2 mi SSW 11.5 mph - N/A   Light Drizzle
9:55 PM 50.0 °F - 48.2 °F 94% 30.21 in 2.5 mi SSW 11.5 mph - N/A   Light Drizzle
10:00 PM 50 °F - 49 °F 95% 30.22 in 3 mi SSW 11.2 mph - - Rain Rain
10:25 PM 50.0 °F - 48.2 °F 94% 30.21 in 2.8 mi SSW 10.4 mph - N/A   Mostly Cloudy
10:55 PM 50.0 °F - 48.2 °F 94% 30.21 in 1.9 mi SSW 12.7 mph - N/A   Mostly Cloudy
11:00 PM 49 °F - 48 °F 97% 30.22 in 1 mi SSW 13.4 mph - -   Mist
11:25 PM 50.0 °F - 48.2 °F 94% 30.21 in 1.9 mi SSW 10.4 mph - N/A   Mostly Cloudy
11:55 PM 50.0 °F - 48.2 °F 94% 30.21 in 1.9 mi SSW 10.4 mph - N/A   Mostly Cloudy